Location: College Park
(38.9810°N, 76.9370°W)
Time: 00:56:41
(UTC-05:00)

OTV 5 (USA 277) - Pass Details

Date: 19 November 2017
Orbit: 404 x 417 km, 43.0° (Epoch: 07 September)

Event Time Altitude Azimuth Distance (km) Brightness Sun altitude
Exits shadow 04:15:55 12° 84° (E) 1,337 ? -30.8°
Drops below altitude 10° 04:16:14 10° 86° (E) 1,454 ? -30.7°
Sets 04:18:22 0° 92° (E) 2,312 ? -30.3°
